Terminal Aerodrome Forecast
Issued by NWS Denver/Boulder, CO

Home | Current Version | Previous Version | Text Only | Print | Product List | Glossary On
Versions: 1 2 3 4 5 6 7 8 9 10 11 12 13 14 15 16 17 18 19 20 21 22 23 24 25 26 27 28 29 30 31 32 33 34 35 36 37 38 39 40 41 42 43 44 45 46 47 48 49 50
000
FTUS45 KBOU 280044 AAA
TAFDEN
TAF AMD
KDEN 280044Z 2801/2906 33011KT P6SM SCT100 BKN150
     FM280200 28010KT P6SM FEW100 BKN150
     FM280500 21010KT P6SM FEW100 SCT150
     FM281400 VRB05KT P6SM FEW220
     FM281900 02010KT P6SM SCT090
     FM290300 20009KT P6SM FEW090=

USA.gov is the U.S. government's official web portal to all federal, state and local government web resources and services.